This is the latest recevied weather packets stored in our database for station/object VE3GIF. If no packets are shown the sender has not sent any weather packets the latest 10 day(s).
| Time | Temp. | Humidity | Pressure | Rain* | Wind** | Luminosity | Snow |
|---|---|---|---|---|---|---|---|
| 1777947359 | 17.78° C | 50% | 999.9 hPa | 0 mm | - | - | - |
| 1777947059 | 17.78° C | 49% | 999.9 hPa | 0 mm | - | - | - |
| 1777946759 | 18.33° C | 48% | 999.8 hPa | 0 mm | - | - | - |
| 1777946459 | 18.33° C | 47% | 999.8 hPa | 0 mm | - | - | - |
| 1777946158 | 18.33° C | 47% | 999.8 hPa | 0 mm | - | - | - |
| 1777945858 | 18.33° C | 46% | 999.7 hPa | 0 mm | - | - | - |
| 1777945558 | 18.89° C | 45% | 999.6 hPa | 0 mm | - | - | - |
| 1777945257 | 18.89° C | 44% | 999.7 hPa | 0 mm | - | - | - |
| 1777944957 | 18.89° C | 43% | 999.7 hPa | 0 mm | - | - | - |
| 1777944657 | 18.89° C | 43% | 999.6 hPa | 0 mm | - | - | - |
| 1777944357 | 18.89° C | 42% | 999.6 hPa | 0 mm | - | - | - |
| 1777944056 | 19.44° C | 41% | 999.6 hPa | 0 mm | - | - | - |
| 1777943756 | 19.44° C | 41% | 999.7 hPa | 0 mm | - | - | - |
| 1777943456 | 19.44° C | 40% | 999.6 hPa | 0 mm | - | - | - |
| 1777942555 | 20° C | 37% | 999.5 hPa | 0 mm | - | - | - |
| 1777942254 | 20° C | 36% | 999.5 hPa | 0 mm | - | - | - |
| 1777941954 | 20° C | 36% | 999.5 hPa | 0 mm | - | - | - |
| 1777941654 | 20° C | 36% | 999.5 hPa | 0 mm | - | - | - |
| 1777941354 | 20.56° C | 36% | 999.5 hPa | 0 mm | - | - | - |
| 1777941053 | 20.56° C | 35% | 999.7 hPa | 0 mm | - | - | - |
| 1777940753 | 20.56° C | 36% | 999.8 hPa | 0 mm | - | - | - |
| 1777940453 | 20.56° C | 36% | 999.8 hPa | 0 mm | - | - | - |
| 1777939852 | 20.56° C | 37% | 999.9 hPa | 0 mm | - | - | - |
| 1777939552 | 20° C | 37% | 1000 hPa | 0 mm | - | - | - |
| 1777939252 | 20° C | 37% | 1000.1 hPa | 0 mm | - | - | - |
* Rain latest hour (hover to see other rain measurements)
** Current wind speed in m/s (hover to see current wind gust speed)